Wind_Speed
10 11 11 8 5 5 12 6 1 5 4 1 2 3 5 2 6 2 12 22 22 25 22 23 19 16 14 12 10 8 7 7 8 9 11 13 11 11 10 10 11 11 11 11 11 11 10 10 8
11 13 12 3 7 11 11 6 7 4 2 5 3 3 5 4 3 4 17 22 24 24 23 21 21 18 15 14 13 11 9 9 9 12 13 14 10 9 9 11 12 13 12 12 12 11 10 10 9
11 16 8 4 8 13 12 8 4 2 3 4 4 1 1 2 2 11 13 23 24 23 22 21 21 18 15 14 13 10 9 8 11 13 14 14 12 9 9 11 12 13 13 13 12 12 12 11 10
8 7 3 7 15 12 4 8 2 2 4 7 1 4 3 1 4 6 21 24 23 22 21 22 21 19 16 14 11 10 8 6 10 15 16 15 13 7 10 10 11 12 12 13 13 13 12 11 10
11 8 9 9 16 9 6 4 1 3 4 4 1 3 3 2 3 9 20 24 21 20 19 23 20 18 16 14 12 10 7 7 9 12 14 14 12 9 12 9 10 10 11 11 11 10 10 10 9
8 6 11 15 16 6 6 3 2 3 4 3 4 2 4 3 7 12 18 22 21 20 19 21 20 20 17 14 12 10 7 8 10 11 12 11 11 9 10 8 9 8 9 9 9 9 8 7 7
18 9 15 16 12 7 4 3 2 5 5 6 2 1 3 3 8 15 19 19 20 19 19 18 19 18 17 15 12 9 8 8 9 11 11 10 5 5 6 6 6 7 7 7 6 6 5 5 4
10 13 13 9 13 7 7 2 3 2 6 3 3 3 4 2 11 14 20 18 18 19 18 17 16 16 16 15 12 9 10 7 8 8 9 8 5 6 7 6 5 5 3 4 4 3 3 3 3
9 5 15 11 11 8 5 4 2 2 10 11 7 7 6 5 15 16 19 18 18 18 17 17 15 15 15 15 13 10 8 8 7 7 8 6 6 5 6 6 6 6 4 3 2 1 1 1 2
8 4 18 8 4 6 3 4 4 4 9 8 8 11 3 13 17 17 17 19 19 19 17 16 15 15 15 18 16 12 10 8 6 6 7 7 7 7 7 7 6 6 5 4 2 1 2 2 4
14 16 9 8 9 7 2 4 3 8 6 8 9 13 3 12 17 16 14 15 17 18 17 17 16 15 15 17 16 14 10 8 8 8 6 7 7 6 6 6 6 6 6 5 4 4 5 5 6
8 19 22 11 4 4 4 2 1 2 4 4 6 10 9 8 14 16 15 13 15 16 17 17 17 16 17 15 15 13 10 8 8 8 7 6 6 6 7 7 7 7 6 6 6 6 7 7 8
13 8 12 13 4 1 2 4 6 7 4 5 4 6 11 3 8 14 16 16 15 15 16 16 17 17 17 18 15 14 12 10 8 9 8 7 7 6 7 7 8 7 7 7 6 6 6 7 7
17 17 25 21 20 10 9 10 7 18 4 4 3 3 7 8 5 11 17 16 17 17 15 15 15 16 17 16 16 14 12 11 11 10 9 9 8 7 6 6 7 8 8 8 8 9 9 9 10
15 13 13 17 25 11 17 22 23 26 13 13 13 8 6 8 2 8 12 16 16 18 16 15 14 15 15 15 15 15 14 13 11 10 11 10 9 8 8 8 8 8 9 10 11 11 12 13 14
9 12 10 16 24 13 20 21 20 26 17 20 19 12 11 8 8 3 10 14 15 17 18 15 15 14 13 12 12 13 13 12 11 10 10 9 10 10 10 9 9 9 11 12 13 13 14 15 16
12 11 16 10 24 9 17 11 6 5 21 27 26 18 12 13 8 7 7 14 16 17 18 18 17 16 14 14 13 13 13 14 12 12 11 10 11 12 13 13 13 12 14 16 16 17 18 18 16
17 15 16 10 14 14 17 12 4 9 14 25 29 27 23 16 15 9 7 11 17 19 20 20 19 18 17 15 16 17 17 17 16 15 15 14 15 15 16 17 17 17 19 20 21 22 22 22 20
14 13 14 4 8 8 14 13 13 12 9 11 17 22 27 22 20 14 8 10 15 20 23 21 21 19 19 18 19 19 19 19 18 17 17 17 18 19 20 20 21 21 22 22 22 23 24 22 24
15 15 11 7 13 14 11 17 16 16 15 15 18 19 27 21 20 17 9 11 14 18 19 19 18 17 19 18 19 18 16 17 15 17 18 20 21 23 24 25 26 26 26 26 26 26 26 27 27
11 15 13 8 10 9 4 11 16 17 22 20 21 20 22 26 23 19 13 11 14 17 19 21 20 20 21 21 21 19 19 18 18 19 20 21 22 24 25 27 28 28 29 28 28 28 27 28 27
10 10 11 8 9 6 9 4 8 17 20 21 23 20 18 22 21 20 18 12 14 16 18 19 21 22 23 24 24 23 22 21 21 21 21 21 22 23 24 25 25 25 26 26 26 25 25 25 26
5 10 12 10 11 4 8 5 10 4 17 17 21 24 23 19 22 25 25 18 13 18 19 18 18 19 19 20 18 17 17 18 20 21 22 22 23 24 24 24 25 25 25 25 25 24 25 26 27
13 11 9 5 6 6 11 10 4 5 8 11 14 23 27 24 20 20 20 23 20 20 20 21 20 18 18 17 16 17 17 18 19 20 21 21 21 21 21 21 21 21 22 22 22 22 22 22 23
13 16 4 5 5 4 2 8 11 6 8 5 7 9 16 20 22 23 24 23 23 24 25 25 22 21 19 17 17 16 17 18 20 20 21 21 21 22 22 22 23 23 23 23 22 21 21 21 21
14 13 3 6 5 5 3 7 3 2 2 5 8 12 11 10 17 29 37 39 28 28 28 26 23 21 18 17 16 16 17 18 18 18 19 21 22 22 21 20 20 20 19 18 17 16 16 16 16
7 5 2 4 1 3 4 4 11 3 3 3 4 5 9 8 13 17 25 34 32 29 29 25 23 20 17 16 15 16 16 16 17 18 19 20 21 20 19 18 17 16 15 15 14 13 12 13 14
2 10 3 1 4 4 3 4 3 8 5 5 7 8 8 6 10 15 20 22 29 29 27 24 21 18 15 15 15 16 17 18 19 20 20 21 20 19 18 16 15 14 14 14 14 14 14 15 16
4 4 1 0 2 2 1 2 2 8 3 5 7 7 7 4 5 9 13 18 25 26 24 22 18 16 15 15 16 17 18 20 20 20 21 21 20 19 18 16 15 14 13 13 13 14 13 14 14
1 8 12 6 5 1 3 3 4 3 3 3 7 9 7 6 3 7 12 20 23 23 22 19 17 16 16 15 16 18 20 21 21 21 20 20 19 19 18 17 16 15 15 14 14 14 13 13 12
Wind_Direction
191 180 165 158 212 233 210 196 128 162 204 33 275 230 193 115 168 70 152 163 164 160 163 159 164 167 169 161 163 163 145 134 127 128 126 127 120 107 93 80 80 89 97 107 107 112 102 96 86
186 171 160 186 234 212 195 172 193 171 265 316 221 223 206 133 66 129 149 162 162 159 161 163 165 168 169 168 165 157 145 133 129 131 132 134 125 112 94 82 84 90 99 105 109 107 105 98 88
180 168 162 192 223 228 210 185 161 256 270 216 196 211 208 93 80 145 162 159 160 158 157 166 161 159 166 173 166 163 154 138 133 133 134 135 121 112 104 93 92 94 98 103 108 108 107 102 96
165 165 128 217 211 211 230 150 120 185 98 165 265 164 114 153 130 158 165 157 159 159 158 164 162 161 171 169 166 155 138 119 143 136 134 135 129 134 117 98 94 95 99 103 107 110 110 107 97
161 171 189 219 208 184 158 123 124 147 119 152 254 129 101 102 160 159 158 156 160 159 159 160 158 163 167 165 168 155 132 105 132 133 127 129 137 142 118 108 103 100 99 98 100 102 100 95 89
186 194 199 207 200 176 155 162 182 88 97 91 165 155 88 125 135 156 156 158 160 160 161 163 168 172 170 168 170 156 141 126 128 134 125 139 158 155 128 123 119 116 113 111 109 107 102 95 86
198 200 210 207 189 174 153 145 143 97 125 66 358 197 79 88 154 154 153 163 161 162 164 167 174 178 173 176 180 169 151 138 140 160 157 163 162 140 140 139 139 136 124 114 105 100 100 97 85
215 204 206 217 196 161 137 117 68 106 74 77 36 47 113 37 162 155 156 166 165 167 166 167 170 175 176 172 186 198 157 151 147 168 186 191 194 175 172 159 154 148 132 119 116 109 96 81 58
192 194 199 206 198 144 147 150 31 47 113 78 73 32 278 192 161 164 168 163 172 174 174 174 174 179 176 182 190 199 193 169 162 171 187 197 206 204 185 188 181 175 170 161 152 126 83 19 3
163 183 205 146 115 145 137 136 118 151 129 92 76 34 2 163 175 175 177 175 176 180 182 179 181 178 184 188 193 201 214 184 179 184 192 195 203 203 200 198 200 198 204 199 212 246 283 305 315
187 188 161 158 88 108 179 94 107 143 114 76 60 36 88 173 180 188 182 184 181 185 189 184 185 184 187 196 195 204 210 197 201 205 208 208 208 208 210 214 213 211 214 223 244 265 279 282 292
171 220 200 215 74 258 273 152 151 205 98 99 61 44 41 189 197 188 194 190 186 186 189 192 195 196 191 198 198 196 199 206 206 214 214 214 215 218 220 221 224 226 231 240 252 262 274 281 294
217 184 212 195 200 163 323 298 290 241 235 277 298 17 33 67 211 214 204 200 197 196 193 199 204 205 204 206 209 205 202 217 217 219 216 216 214 222 227 233 234 234 240 244 256 270 274 287 295
188 180 196 213 228 246 279 271 291 238 183 214 265 294 29 23 217 221 214 217 205 199 202 205 212 213 214 213 211 211 211 213 220 225 221 218 220 220 220 234 242 245 248 251 257 263 274 280 287
178 179 178 195 207 201 244 265 240 232 247 259 270 281 290 347 12 224 224 226 219 214 207 211 210 210 210 210 213 214 217 215 217 223 225 223 222 224 232 239 247 251 255 257 263 270 276 281 287
165 182 173 191 192 208 186 249 252 236 245 259 258 265 271 278 327 287 231 224 222 220 218 211 217 211 205 205 206 210 211 211 216 224 229 228 228 234 241 251 254 254 261 266 270 275 280 286 287
191 181 202 174 193 168 193 246 234 238 243 252 249 250 262 256 274 324 239 220 218 219 224 224 223 218 213 213 213 214 216 220 223 233 240 242 243 247 252 257 260 263 267 271 272 274 277 280 281
185 200 196 169 193 194 200 230 183 203 223 247 248 244 248 246 250 286 258 219 213 215 222 226 227 227 216 215 221 225 228 235 234 238 243 246 252 255 260 264 267 268 270 271 274 276 279 281 280
170 181 172 138 175 165 211 235 244 247 229 235 245 249 241 231 241 264 262 219 218 219 224 225 228 226 223 221 225 230 233 238 242 245 248 249 253 257 260 262 267 270 270 271 271 274 276 276 281
176 177 175 156 164 201 202 233 243 240 236 227 237 258 224 218 234 245 279 224 220 218 218 218 220 219 221 224 226 231 235 239 244 251 254 254 256 260 264 269 273 274 274 273 273 274 275 277 281
174 190 172 184 162 195 220 243 240 243 242 233 238 245 231 219 225 234 254 253 226 223 219 222 224 224 226 230 234 238 244 250 254 259 262 263 264 266 268 270 271 272 272 272 272 274 276 278 278
164 210 177 165 172 217 202 262 221 228 232 230 235 242 246 234 226 226 240 260 237 230 226 224 226 230 233 235 237 241 247 253 258 260 263 265 266 268 269 270 269 269 270 271 273 274 272 271 269
116 163 188 196 211 220 196 248 254 255 240 239 236 240 244 240 232 228 238 243 260 246 234 230 228 227 227 226 228 235 242 249 256 260 264 267 269 271 270 269 269 269 271 273 274 273 271 269 268
137 129 124 147 211 239 226 229 257 251 281 268 255 244 243 242 239 237 239 243 258 248 239 233 225 222 223 228 235 242 248 253 258 263 266 269 270 269 269 269 269 270 271 271 271 270 269 269 267
179 164 130 178 199 240 101 226 261 259 259 281 305 279 257 246 238 239 238 244 238 237 230 224 220 221 224 230 237 245 252 258 262 266 268 270 269 268 269 270 270 270 271 271 271 270 266 261 263
189 182 188 191 200 193 164 217 226 360 317 260 259 265 254 250 238 234 234 244 239 228 222 218 217 220 224 233 244 253 259 263 265 267 270 271 271 272 272 270 269 268 267 267 268 268 268 264 256
174 209 37 92 67 225 174 229 276 281 218 352 346 296 266 246 236 236 232 231 233 224 216 212 214 218 226 240 252 257 261 265 269 270 271 271 272 272 272 270 268 266 262 260 258 261 260 249 252
218 143 166 151 181 219 162 254 216 128 69 26 10 344 328 285 261 238 231 219 216 211 209 208 211 219 231 241 248 256 263 269 273 274 272 271 270 269 269 269 266 263 258 255 254 257 260 259 255
162 188 132 103 329 291 278 163 134 144 44 24 20 5 346 319 258 233 209 203 201 202 203 208 216 225 233 242 255 266 274 277 276 273 270 267 265 264 263 262 261 259 256 255 257 259 259 257 258
261 228 219 227 187 225 309 262 146 206 302 305 20 29 6 343 265 198 193 194 196 199 204 210 218 228 238 251 265 274 279 280 277 272 268 265 263 261 260 258 257 256 257 256 256 259 260 256 253
Height
1534 1535 1537 1540 1542 1534 1529 1532 1531 1533 1533 1534 1534 1532 1529 1528 1529 1537 1538 1542 1545 1548 1552 1555 1559 1562 1564 1565 1566 1567 1567 1567 1568 1568 1569 1570 1570 1570 1570 1570 1569 1568 1568 1569 1569 1569 1570 1570 1570
1532 1535 1537 1538 1535 1535 1527 1529 1530 1530 1534 1535 1535 1534 1533 1531 1535 1535 1539 1542 1546 1549 1552 1556 1559 1563 1565 1566 1567 1568 1568 1569 1569 1570 1570 1571 1572 1572 1572 1571 1571 1570 1570 1571 1571 1571 1571 1572 1572
1532 1534 1535 1535 1529 1528 1522 1529 1529 1531 1533 1534 1535 1535 1535 1535 1536 1538 1538 1542 1547 1550 1553 1557 1559 1562 1566 1567 1568 1569 1570 1571 1570 1571 1572 1573 1574 1573 1573 1573 1573 1572 1572 1573 1573 1573 1573 1573 1574
1532 1534 1535 1530 1527 1525 1526 1530 1531 1530 1532 1533 1535 1533 1537 1535 1538 1539 1539 1543 1550 1552 1555 1556 1560 1563 1566 1568 1570 1571 1572 1572 1572 1572 1573 1574 1575 1575 1575 1575 1575 1575 1575 1575 1575 1575 1575 1576 1576
1529 1530 1529 1528 1522 1526 1531 1532 1532 1529 1530 1532 1535 1533 1536 1536 1537 1538 1541 1545 1552 1555 1557 1557 1561 1563 1567 1569 1571 1572 1573 1573 1574 1574 1574 1576 1577 1576 1576 1577 1577 1577 1578 1577 1578 1578 1578 1578 1578
1526 1526 1523 1525 1524 1530 1531 1533 1533 1530 1531 1533 1534 1534 1537 1537 1539 1539 1543 1548 1552 1556 1558 1559 1562 1563 1567 1570 1572 1572 1574 1574 1575 1576 1577 1578 1578 1577 1577 1577 1578 1578 1579 1578 1578 1579 1579 1579 1579
1522 1522 1518 1519 1524 1533 1531 1534 1533 1531 1531 1534 1536 1534 1540 1539 1540 1542 1545 1550 1552 1556 1560 1562 1562 1565 1566 1570 1573 1573 1575 1575 1576 1576 1577 1578 1578 1579 1579 1579 1579 1579 1579 1579 1579 1580 1580 1580 1580
1521 1521 1525 1521 1527 1530 1532 1536 1535 1533 1535 1536 1536 1539 1539 1540 1541 1543 1546 1551 1553 1556 1560 1562 1564 1566 1567 1569 1573 1574 1574 1575 1577 1577 1577 1578 1579 1579 1580 1580 1580 1580 1580 1580 1580 1580 1580 1580 1580
1525 1525 1522 1524 1525 1527 1534 1534 1537 1536 1536 1537 1539 1541 1539 1538 1541 1544 1547 1549 1554 1556 1559 1561 1564 1568 1569 1569 1572 1574 1574 1575 1576 1577 1578 1579 1579 1579 1580 1580 1580 1580 1580 1580 1580 1580 1580 1579 1579
1522 1528 1520 1524 1528 1530 1535 1535 1537 1537 1536 1539 1540 1540 1537 1538 1541 1544 1547 1549 1553 1556 1558 1561 1563 1566 1570 1568 1570 1573 1574 1574 1576 1577 1578 1578 1579 1579 1580 1579 1580 1580 1580 1579 1579 1579 1579 1579 1579
1519 1519 1525 1526 1528 1533 1536 1535 1537 1536 1537 1540 1540 1540 1539 1539 1542 1545 1549 1551 1553 1556 1558 1560 1561 1564 1569 1568 1568 1571 1574 1575 1575 1576 1577 1578 1578 1578 1579 1579 1579 1579 1579 1579 1579 1579 1579 1578 1578
1518 1519 1523 1527 1532 1535 1536 1539 1537 1538 1540 1541 1541 1540 1540 1539 1541 1544 1548 1551 1552 1554 1556 1558 1559 1562 1564 1570 1570 1570 1573 1574 1575 1575 1576 1576 1577 1577 1577 1577 1578 1578 1578 1578 1578 1578 1577 1577 1577
1513 1519 1526 1528 1533 1537 1538 1537 1537 1537 1539 1540 1541 1541 1540 1538 1541 1543 1546 1549 1551 1553 1555 1557 1558 1560 1562 1565 1569 1569 1571 1572 1574 1573 1574 1575 1575 1575 1576 1576 1576 1577 1577 1577 1577 1576 1576 1576 1575
1510 1520 1524 1530 1536 1537 1540 1540 1539 1532 1537 1539 1540 1541 1540 1540 1540 1542 1544 1547 1549 1552 1554 1556 1557 1560 1560 1562 1565 1567 1569 1570 1571 1572 1572 1573 1573 1574 1574 1575 1575 1575 1575 1575 1575 1575 1574 1574 1574
1510 1516 1522 1526 1532 1535 1544 1541 1533 1534 1536 1537 1538 1539 1539 1540 1540 1541 1542 1545 1548 1550 1552 1554 1555 1557 1559 1561 1563 1565 1566 1567 1568 1570 1570 1571 1572 1572 1573 1573 1574 1574 1573 1573 1573 1573 1572 1572 1571
1510 1516 1522 1522 1530 1534 1541 1528 1523 1530 1533 1533 1535 1537 1537 1539 1539 1539 1540 1542 1545 1548 1550 1553 1554 1556 1557 1560 1561 1563 1564 1566 1567 1568 1568 1569 1570 1571 1571 1571 1572 1572 1571 1571 1570 1570 1570 1570 1569
1510 1508 1514 1525 1524 1528 1530 1522 1520 1524 1528 1528 1530 1533 1535 1536 1538 1538 1537 1539 1542 1545 1548 1550 1552 1555 1556 1558 1560 1561 1562 1564 1565 1565 1567 1567 1568 1568 1568 1568 1569 1569 1568 1568 1568 1567 1567 1567 1566
1499 1501 1509 1519 1522 1524 1525 1522 1520 1523 1524 1523 1522 1525 1530 1532 1535 1536 1536 1536 1539 1542 1545 1547 1549 1552 1553 1554 1557 1558 1559 1562 1563 1562 1563 1564 1565 1565 1565 1565 1565 1565 1565 1564 1564 1564 1563 1562 1562
1493 1501 1507 1517 1519 1523 1524 1523 1516 1519 1520 1519 1518 1520 1523 1528 1531 1534 1534 1533 1536 1538 1542 1543 1546 1549 1550 1551 1553 1555 1555 1558 1559 1559 1560 1560 1561 1561 1561 1561 1561 1561 1560 1560 1560 1559 1559 1558 1557
1501 1501 1502 1509 1517 1525 1522 1520 1513 1514 1515 1515 1515 1515 1517 1521 1526 1530 1531 1531 1532 1534 1537 1540 1542 1544 1547 1549 1550 1552 1552 1553 1555 1556 1556 1556 1556 1557 1557 1556 1556 1555 1555 1555 1555 1554 1553 1552 1552
1499 1501 1503 1506 1513 1518 1517 1513 1508 1509 1512 1512 1511 1511 1512 1515 1521 1526 1527 1528 1529 1531 1533 1536 1538 1540 1543 1545 1547 1547 1548 1549 1550 1551 1552 1551 1551 1551 1551 1551 1550 1550 1549 1549 1549 1548 1547 1547 1546
1505 1503 1505 1508 1508 1513 1511 1504 1500 1503 1503 1504 1505 1509 1510 1512 1516 1521 1522 1525 1526 1528 1530 1531 1533 1536 1538 1541 1542 1542 1543 1545 1545 1546 1547 1546 1546 1546 1545 1545 1545 1544 1543 1543 1543 1543 1542 1542 1541
1503 1505 1507 1509 1509 1514 1515 1516 1494 1498 1495 1497 1500 1505 1506 1510 1511 1514 1518 1522 1523 1525 1525 1527 1529 1532 1534 1536 1537 1538 1539 1540 1541 1542 1542 1542 1541 1540 1539 1539 1539 1538 1538 1537 1537 1536 1536 1536 1535
1506 1509 1512 1514 1511 1520 1506 1511 1492 1493 1495 1493 1494 1498 1501 1504 1506 1509 1513 1516 1518 1521 1521 1524 1526 1529 1531 1532 1533 1534 1534 1535 1537 1537 1537 1537 1536 1535 1534 1534 1534 1533 1532 1532 1531 1531 1530 1529 1529
1503 1503 1520 1524 1524 1512 1516 1514 1494 1494 1495 1496 1495 1496 1497 1497 1501 1503 1506 1509 1512 1515 1518 1521 1523 1525 1527 1528 1529 1530 1531 1531 1532 1532 1532 1532 1532 1530 1529 1528 1528 1527 1526 1525 1525 1524 1524 1523 1523
1503 1496 1501 1511 1513 1506 1522 1510 1493 1493 1496 1496 1496 1497 1494 1494 1496 1499 1502 1505 1507 1510 1514 1516 1519 1522 1524 1525 1526 1527 1527 1527 1527 1527 1527 1527 1526 1525 1523 1523 1522 1521 1520 1520 1519 1519 1518 1517 1518
1509 1510 1511 1513 1525 1511 1499 1502 1492 1490 1492 1493 1494 1495 1491 1491 1494 1495 1498 1500 1503 1506 1510 1512 1516 1519 1520 1522 1523 1523 1523 1523 1523 1522 1521 1522 1521 1519 1518 1517 1516 1515 1515 1515 1516 1515 1514 1515 1515
1503 1507 1511 1515 1517 1509 1504 1501 1485 1490 1490 1490 1491 1491 1490 1489 1490 1491 1493 1494 1497 1502 1507 1509 1513 1515 1517 1518 1519 1519 1519 1518 1517 1516 1516 1516 1515 1514 1513 1512 1512 1511 1511 1511 1512 1512 1511 1511 1511
1507 1506 1509 1507 1511 1504 1500 1489 1487 1488 1491 1491 1492 1492 1490 1489 1489 1489 1489 1491 1495 1499 1503 1508 1510 1512 1513 1514 1515 1515 1514 1513 1512 1511 1510 1510 1510 1509 1508 1507 1508 1507 1508 1508 1508 1508 1507 1507 1507
1504 1500 1499 1503 1512 1513 1510 1494 1490 1492 1494 1495 1492 1491 1490 1489 1487 1486 1489 1490 1494 1498 1502 1505 1507 1510 1510 1510 1511 1510 1510 1508 1506 1504 1504 1504 1504 1503 1503 1503 1503 1503 1504 1504 1504 1504 1504 1504 1503